Location: Newark
(29.9790°N, 31.1340°E)
Time: 11:44:12
(UTC+00:00)

A-11 Canister half - Pass Details

Date: 28 January 2020
Orbit: 1524 x 1684 km, 47.3° (Epoch: 19 February)

Event Time Altitude Azimuth Distance (km) Brightness Sun altitude
Rises 17:18:29 0° 291° (WNW) 4,687 12.5 -23.8°
Reaches altitude 10° 17:22:13 10° 304° (NW) 3,720 11.6 -24.6°
Maximum altitude 17:29:53 27° 359° (N) 2,664 10.1 -26.3°
Enters shadow 17:33:08 23° 28° (NNE) 2,907 10.1 -27.0°
